Погода в Вуппертале

Германия     51°15′53″N   7°10′57″E
темп.,
°C
ветер,
м/с
пор.,
м/с
влажн.,
%
обл.,
%
осадки,
мм/ч
давл.,
гПа
погр.,
м
21 апреля, ср
ср2123:00+9всв118049 0.0 101612
02:00+7в118667 0.0 101611
05:00+8ю1182100 0.0 101610
08:00+8ссз1185100 0.0 101619
11:00+11с236592 0.1 1017398
14:00+14ссз4449100 0.1 10171706
17:00+13ссз455030 0.0 10171370
20:00+8с5869100 0.1 1019853
22 апреля, чт
чт2223:00+4ссв4107261 0.0 1022550
02:00+1ссв268467 0.0 1023177
05:00−1с1189100 0.0 102413
08:00+2ссз2774100 0.0 1025363
11:00+7ссз465288 0.0 10251284
14:00+10ссз464282 0.0 10251753
17:00+11ссз574295 0.0 10241994
20:00+8ссз4861100 0.0 1026515
23 апреля, пт
пт2323:00+2с22875 0.0 102825
02:00+1ссз22975 0.0 102925
05:000ссз119940 0.0 102913
08:00+3ссз149481 0.0 1030236
11:00+8ссз346140 0.1 10301241
14:00+12ссз45430 0.1 10291659
17:00+13ссз45415 0.0 10281790
20:00+8с23665 0.0 102851
24 апреля, сб
сб2423:00+3всв11885 0.0 103016
02:00+2св22931 0.0 102916
05:00+1св229631 0.0 103020
08:00+4св1386100 0.0 1030170
11:00+8ссв3557100 0.0 1029920
14:00+10ссв4554100 0.0 10281348
17:00+10ссв455895 0.0 10281305
20:00+7св24735 0.0 1028215
25 апреля, вс
вс2523:00+3св11895 0.0 102910
02:00+2св28945 0.0 1029158
05:000св24950 0.0 102992
08:00+3св367998 0.0 1028217
11:00+8св45435 0.0 1028827
14:00+11ссв33350 0.0 10261201
17:00+12св34375 0.0 10251240
20:00+8св386199 0.0 1024321